Location: Baia de Cri?
(46.1667°N, 22.7167°E)
Time: 22:28:40
(UTC+00:00)

CZ-4 R/B - Pass Details

Date: 15 January 2026
Orbit: 676 x 743 km, 98.7° (Epoch: 13 February)

Event Time Altitude Azimuth Distance (km) Brightness Sun altitude
Rises 04:14:23 0° 10° (N) 3,094 7.1 -19.1°
Reaches altitude 10° 04:16:40 10° 6° (N) 2,181 6.3 -18.7°
Maximum altitude 04:21:20 57° 289° (WNW) 844 3.8 -18.0°
Drops below altitude 10° 04:26:04 10° 212° (SSW) 2,208 6.2 -17.2°
Sets 04:28:23 0° 208° (SSW) 3,134 7.0 -16.8°
